Orbital Elements at Epoch 2459200.5 (2020-Dec-17.0) TDB
Reference: JPL 23 (heliocentric ecliptic J2000)
Element | Value | Uncertainty (1-sigma) | Units |
e | .2235023517420887 | 3.421e-08 | |
a | 2.396961797962891 | 8.785e-09 | au |
q | 1.861235199082239 | 8.2693e-08 | au |
i | 11.06870087377523 | 4.4782e-06 | deg |
node | 163.4891955900146 | 2.3645e-05 | deg |
peri | 138.5364900749114 | 2.5991e-05 | deg |
M | 28.29704959030443 | 1.1842e-05 | deg |
tp | 2459093.956060569298 (2020-Sep-01.45606057) | 4.44e-05 | TDB |
period | 1355.470579102174 3.71 | 7.4518e-06 2.04e-08 | d yr |
n | .2655904197038742 | 1.4601e-09 | deg/d |
Q | 2.932688396843542 | 1.0748e-08 | au |
|
| | Orbit Determination Parameters
Additional Information
|